This demonstration page uses our WeatherBlox Daily Observations layout. Learn more.

Left ArrowRight Arrow

36.17497, -115.13722

Hourly Observations for January 21, 2019

Temp ( °F °C ) Dew Point ( °F °C ) Humidity (%) Winds ( mph kmh ) Pressure ( in mb ) Visibility ( mi km ) Precip ( " mm )
12:53 am 00:53 Clear 57 13.9 36 2.2 45 45 SSW 13 20 29.72 1006 10 16.0934 0 0
1:53 am 01:53 Clear 59 15 32 0 36 36 WSW 15 24 29.7 1006 10 16.0934 0 0
2:53 am 02:53 Mostly Clear 58 14.4 29 -1.7 33 33 WSW 30 48 29.68 1005 10 16.0934 0 0
3:53 am 03:53 Mostly Clear 55 12.8 31 -0.6 40 40 WSW 32 52 29.69 1005 10 16.0934 0 0
4:53 am 04:53 Clear 52 11.1 27 -2.8 38 38 W 26 43 29.71 1006 10 16.0934 0 0
5:53 am 05:53 Mostly Cloudy 46 7.8 34 1.1 63 63 NNW 18 30 29.8 1009 10 16.0934 0 0
6:00 am 06:00 Mostly Cloudy 45 7.2 34 1.1 66 66 N 14 22 29.77 1008 10 16.0934 0 0
6:53 am 06:53 Sunny 45 7.2 31 -0.6 58 58 W 16 26 29.84 1011 10 16.0934 0 0
7:53 am 07:53 Sunny 48 8.9 29 -1.7 48 48 WNW 7 11 29.86 1011 10 16.0934 0 0
8:53 am 08:53 Sunny 49 9.4 29 -1.7 46 46 W 10 17 29.87 1012 10 16.0934 0 0
9:53 am 09:53 Mostly Cloudy 54 12.2 24 -4.4 31 31 NNW 18 30 29.87 1012 10 16.0934 0 0
10:53 am 10:53 Sunny 56 13.3 20 -6.7 24 24 NNW 28 44 29.85 1011 10 16.0934 0 0
11:53 am 11:53 Sunny 54 12.2 26 -3.3 34 34 NNW 32 52 29.87 1012 10 16.0934 0 0
12:53 pm 12:53 Mostly Cloudy 47 8.3 34 1.1 61 61 N 23 37 29.92 1013 10 16.0934 0 0.0254
1:53 pm 13:53 Sunny 47 8.3 34 1.1 61 61 N 21 33 29.9 1012 10 16.0934 0 0
2:53 pm 14:53 Sunny 50 10 32 0 50 50 NNE 13 20 29.91 1013 10 16.0934 0 0
3:53 pm 15:53 Sunny 52 11.1 29 -1.7 41 41 N 18 30 29.9 1013 10 16.0934 0 0
4:53 pm 16:53 Sunny 52 11.1 28 -2.2 40 40 N 16 26 29.93 1014 10 16.0934 0 0
5:53 pm 17:53 Mostly Clear 51 10.6 28 -2.2 41 41 N 8 13 29.97 1015 10 16.0934 0 0
6:53 pm 18:53 Clear 50 10 27 -2.8 41 41 NNW 17 28 29.99 1016 10 16.0934 0 0
7:53 pm 19:53 Clear 50 10 26 -3.3 39 39 NNW 22 35 30.01 1016 10 16.0934 0 0
8:53 pm 20:53 Clear 49 9.4 22 -5.6 35 35 NNW 28 44 30.05 1018 10 16.0934 0 0
9:53 pm 21:53 Clear 48 8.9 22 -5.6 36 36 NNW 17 28 30.09 1019 10 16.0934 0 0
10:53 pm 22:53 Clear 47 8.3 20 -6.7 34 34 NNW 25 41 30.11 1020 10 16.0934 0 0
11:53 pm 23:53 Clear 46 7.8 16 -8.9 30 30 NNW 23 37 30.16 1021 10 16.0934 0 0

Powered by AerisWeather